Simultaneous Nadir Overpasses (SNOs) Predictions

Prediction of SNOs between GOES-16 and METOP-C Satellite Orbit:

Table of predicted SNOs for the next 14.0 days since TLE Epoch: 9/3/2022
Index Date Time (GOES-16) GOES-16 Lat,Lon METOP-C Lat,Lon Distance(km) Time Diff (sec)
1 09/03/2022 14:31:47 -0.03, -75.21 0.09, -75.68 53.86 80
2 09/06/2022 02:32:47 0.03, -75.21 0.03, -75.29 8.87 80
3 09/08/2022 14:30:57 -0.03, -75.23 -0.10, -74.85 43.48 80
4 09/10/2022 02:49:57 0.03, -75.24 -0.89, -79.45 479.55 80
5 09/11/2022 02:26:37 0.03, -75.25 0.20, -74.45 91.04 80
6 09/12/2022 14:45:27 -0.03, -75.28 0.80, -79.01 424.99 80
7 09/13/2022 14:27:27 -0.02, -75.30 -0.29, -74.01 146.14 80
8 09/15/2022 02:46:27 0.02, -75.32 -0.70, -78.62 375.62 80
9 09/16/2022 02:23:07 0.02, -75.34 0.39, -73.62 195.68 80
